Location: Fredericksburg
(30.2750°N, 98.8720°W)
Time: 04:43:44
(UTC-06:00)

ISS - All Passes

Search period start: 16 January 2017 00:00
Search period end: 26 January 2017 00:00
Orbit: 400 x 410 km, 51.6° (Epoch: 17 January)

Date Brightness Start Highest point End Pass type
(mag) Time Alt. Az. Time Alt. Az. Time Alt. Az.
16 Jan - 01:00:37 10° WNW 01:02:12 13° NW 01:03:47 10° N night (unlit)
16 Jan - 07:30:56 10° NNW 07:34:04 43° NE 07:37:10 10° ESE daylight
16 Jan - 09:09:36 10° WSW 09:10:12 10° SW 09:10:48 10° SW daylight
16 Jan - 22:30:59 10° S 22:33:30 21° SE 22:36:01 10° ENE night (unlit)
17 Jan - 00:07:12 10° W 00:09:52 23° NW 00:12:32 10° NNE night (unlit)
17 Jan - 06:39:14 10° NNW 06:41:49 21° NE 06:44:24 10° E visible
17 Jan - 08:15:35 10° WNW 08:18:13 23° SW 08:20:51 10° S daylight
17 Jan - 23:14:28 10° WSW 23:17:37 48° NW 23:20:47 10° NNE night (unlit)
18 Jan - 05:48:07 10° N 05:49:27 12° NE 05:50:48 10° ENE visible
18 Jan - 07:22:59 10° NW 07:26:10 54° SW 07:29:20 10° SSE daylight
18 Jan - 22:22:14 10° SW 22:25:27 68° SE 22:28:41 10° NE night (unlit)
19 Jan - 00:01:32 10° NW 00:02:14 10° NNW 00:02:56 10° NNW night (unlit)
19 Jan - 06:30:48 10° NW 06:34:01 59° NE 06:37:13 10° SE visible
19 Jan - 21:30:32 10° S 21:33:22 28° SE 21:36:12 10° ENE night (unlit)
19 Jan - 23:07:27 10° W 23:09:50 19° NW 23:12:13 10° N night (unlit)
20 Jan - 05:38:56 10° NNW 05:41:46 27° NE 05:44:35 10° E visible
20 Jan - 07:15:50 10° W 07:18:04 17° SW 07:20:17 10° S daylight
20 Jan - 20:39:49 10° SSE 20:41:19 13° SE 20:42:50 10° E night (unlit)
20 Jan - 22:14:29 10° WSW 22:17:31 36° NW 22:20:33 10° NNE night (unlit)
21 Jan - 04:47:29 10° N 04:49:24 15° NE 04:51:19 10° ENE visible
21 Jan - 06:22:56 10° WNW 06:25:59 39° SW 06:29:02 10° SSE visible
21 Jan - 21:22:02 10° SW 21:25:16 86° NW 21:28:32 10° NE night (unlit)
22 Jan - 05:30:35 10° NW 05:33:50 83° NE 05:37:04 10° SE visible
22 Jan - 20:30:04 10° SSW 20:33:07 37° SE 20:36:10 10° ENE visible
22 Jan - 22:07:42 10° WNW 22:09:42 15° NW 22:11:41 10° N night (unlit)
23 Jan - 04:38:34 10° NNW 04:41:35 35° NE 04:44:35 10° ESE visible
23 Jan - 06:16:11 10° W 06:17:47 13° SW 06:19:21 10° SSW visible
23 Jan - 19:38:50 10° S 19:41:01 17° SE 19:43:12 10° E visible
23 Jan - 21:14:27 10° WSW 21:17:18 28° NW 21:20:10 10° NNE night (unlit)
24 Jan - 03:46:53 10° N 03:49:13 18° NE 03:51:33 10° E night (unlit)
24 Jan - 05:22:51 10° WNW 05:25:42 28° SW 05:28:32 10° S visible
24 Jan - 20:21:46 10° SW 20:25:00 62° NW 20:28:14 10° NE visible
25 Jan - 02:56:19 10° NNE 02:56:44 10° NNE 02:57:09 10° NE night (unlit)
25 Jan - 04:30:18 10° NW 04:33:32 71° SW 04:36:45 10° SE night (unlit)
25 Jan - 19:29:36 10° SSW 19:32:46 52° SE 19:35:57 10° NE visible
25 Jan - 21:07:59 10° WNW 21:09:27 12° NW 21:10:56 10° N visible
